Regional Weather Roundup
Issued by NWS

Home | Current Version | Previous Version | Text Only | Print | Product List | Glossary Off
Versions: 1 2 3 4 5 6 7 8 9 10 11 12 13 14 15 16 17 18 19 20 21 22 23 24 25 26 27 28 29 30 31 32 33 34 35 36 37 38 39 40 41 42 43 44 45 46 47 48 49 50

000
ASUS43 KIND 251659
RWRIN

WEATHER ROUNDUP FOR INDIANA
NATIONAL WEATHER SERVICE INDIANAPOLIS IN
100 PM EDT THU AUG 25 2016

NOTE: "FAIR" INDICATES FEW OR NO CLOUDS BELOW 12,000 FEET WITH NO
SIGNIFICANT WEATHER AND/OR OBSTRUCTIONS TO VISIBILITY.

* - STATION DOES NOT REPORT WEATHER SUCH AS PRECIPITATION OR FOG.

+ - STATION NOT QUALITY CONTROLLED BY THE NATIONAL WEATHER SERVICE.
    USE DATA WITH CAUTION...ESPECIALLY DEWPOINT AND RELATIVE
    HUMIDITY OBSERVATIONS.

INZ001>003-010>013-019-020-251800-
NORTHWEST INDIANA

CITY           SKY/WX    TMP DP  RH WIND       PRES   REMARKS
GARY /AIRPORT/ CLOUDY    79  72  78 W9        30.05R
KNOX *+        CLOUDY    77  50  38 W10       30.04R
MONTICELLO +   PTSUNNY   80  66  63 SW12G17   30.05S

$$

LMZ046-743>745-251800-
SOUTHERN LAKE MICHIGAN

STATION/POSITION TIME  TEMP    WIND        PRES    WAVE
                       AIR SEA DIR/SP/G            HT
                 (UTC) (F)     (DEG/KT/KT) (MB)    (FT)
BURNS HARBOR     1615   74     260/  8/ 13 1017.3R
MICHIGAN CITY    1600   73     240/ 15/ 16   N/A
5NW MICH CITY    1600   74 73  260/ 12/ 14   N/A     2

$$

INZ004-005-014>016-021>024-251800-
NORTH CENTRAL INDIANA

CITY           SKY/WX    TMP DP  RH WIND       PRES   REMARKS
ELKHART        PTSUNNY   77  68  73 W12G17    30.03
GOSHEN         PTSUNNY   81  68  64 W14       30.03R
SOUTH BEND     CLOUDY    76  70  82 W13       30.04R

$$

INZ006>009-017-018-025>027-251800-
NORTHEAST INDIANA

CITY           SKY/WX    TMP DP  RH WIND       PRES   REMARKS
ANGOLA *+      PTSUNNY   84  73  70 W7        30.02R
FORT WAYNE     MOSUNNY   84  70  62 SW14G20   30.04S

$$

INZ028-029-035-036-043>045-051>053-251800-
WEST CENTRAL INDIANA

CITY           SKY/WX    TMP DP  RH WIND       PRES   REMARKS
CRAWFORDSVL +  MOSUNNY   82  70  68 SW7       30.09R
LAFAYETTE      SUNNY     82  70  66 W12       30.06R
TERRE HAUTE    MOSUNNY   87  71  58 W12       30.08R

$$

INZ030>032-037>040-046>048-054>057-064-065-251800-
CENTRAL INDIANA

CITY           SKY/WX    TMP DP  RH WIND       PRES   REMARKS
COLUMBUS       MOSUNNY   86  77  74 MISG      30.08S HX  97
INDIANAPOLIS   MOSUNNY   88  71  57 W12       30.08R
-EAGLE CREEK   MOSUNNY   86  72  62 W8        30.07S
MT COMFORT *+  PTSUNNY   84  73  70 SW9       30.08S
SHELBYVILLE    MOSUNNY   87  76  69 SW10      30.08R HX  97

$$

INZ033-034-041-042-049-050-058-059-251800-
EAST CENTRAL INDIANA

CITY           SKY/WX    TMP DP  RH WIND       PRES   REMARKS
MUNCIE         MOSUNNY   85  73  67 SW12      30.07R

$$

INZ060-061-067>069-081>083-085>088-251800-
SOUTHWEST INDIANA

CITY           SKY/WX    TMP DP  RH WIND       PRES   REMARKS
EVANSVILLE     SUNNY     89  74  60 SW10      30.10S HX  98
HUNTINGBURG *+ SUNNY     88  75  66 S9        30.10S HX  97

$$

INZ062-063-066-070>080-084-089>092-251800-
SOUTH CENTRAL AND SOUTHEAST INDIANA

CITY           SKY/WX    TMP DP  RH WIND       PRES   REMARKS
BLOOMINGTON    MOSUNNY   86  74  67 W9        30.10R
MADISON *+     MOSUNNY   86  73  66 SW9       30.13R

$$




USA.gov is the U.S. government's official web portal to all federal, state and local government web resources and services.